This demonstration page uses our WeatherBlox Daily Observations layout. Learn more.

Hourly Observations for August 6, 2017

Temp ( °F °C ) Dew Point ( °F °C ) Humidity (%) Winds ( mph kmh ) Pressure ( in mb ) Visibility ( mi km ) Precip ( " mm )
12:15 am 00:15 Cloudy 67 19.5 64 18 91 91 SE 7 11 29.91 1013 10 16.09344 0 0
12:35 am 00:35 Cloudy 67 19.2 64 17.8 92 92 ESE 5 7 29.91 1013 7 11.265408 0 0
12:55 am 00:55 Cloudy with Mist and Fog 66 19 64 17.7 92 92 ESE 8 13 29.91 1013 5 8.04672 0 0
1:15 am 01:15 Cloudy with Mist and Fog 66 19 64 17.7 92 92 ESE 7 11 29.91 1013 4 6.437376 0 0
1:35 am 01:35 Cloudy with Mist and Fog 66 18.7 64 17.7 94 94 E 6 9 29.91 1013 1.25 2.01168 0 0
1:55 am 01:55 Cloudy with Mist and Fog 66 18.7 64 17.8 95 95 ESE 7 11 29.91 1013 1.5 2.414016 0 0
2:15 am 02:15 Cloudy with Mist and Fog 66 18.7 64 17.8 95 95 E 7 11 29.91 1013 1.25 2.01168 0 0
2:35 am 02:35 Cloudy with Mist and Fog 65 18.6 64 17.7 95 95 ESE 6 9 29.91 1013 1 1.609344 0 0
2:55 am 02:55 Cloudy with Mist and Fog 65 18.5 64 17.7 95 95 ESE 7 11 29.91 1013 1 1.609344 0 0
3:15 am 03:15 Cloudy with Mist and Fog 65 18.5 64 17.7 95 95 SE 7 11 29.91 1013 0.75 1.207008 0 0
3:35 am 03:35 Cloudy with Mist and Fog 65 18.5 64 17.6 95 95 ESE 7 11 29.91 1013 1.5 2.414016 0 0
3:55 am 03:55 Cloudy with Mist and Fog 65 18.3 64 17.5 95 95 ESE 5 7 29.91 1013 1.25 2.01168 0 0
4:15 am 04:15 Cloudy with Mist and Fog 65 18.2 64 17.5 96 96 E 5 7 29.91 1013 1.25 2.01168 0 0
4:35 am 04:35 Cloudy with Mist and Fog 65 18.1 63 17.3 95 95 E 8 13 29.91 1013 1.5 2.414016 0 0
4:55 am 04:55 Cloudy with Mist and Fog 65 18.1 63 17.3 95 95 E 7 11 29.91 1013 1 1.609344 0 0
5:15 am 05:15 Cloudy with Mist and Fog 64 18 63 17.2 95 95 ESE 5 7 29.91 1013 0.75 1.207008 0 0
5:35 am 05:35 Cloudy with Mist and Fog 64 18 63 17.2 95 95 ENE 5 7 29.91 1013 1.5 2.414016 0 0
5:55 am 05:55 Cloudy with Mist and Fog 64 18 63 17.1 95 95 ENE 3 6 29.91 1013 1.5 2.414016 0 0
6:15 am 06:15 Cloudy with Mist and Fog 64 18 63 17.2 95 95 NNE 3 6 29.94 1014 2.5 4.02336 0 0
6:35 am 06:35 Cloudy with Mist and Fog 64 18 63 17.1 95 95 Calm 29.94 1014 2.5 4.02336 0 0
6:55 am 06:55 Cloudy with Mist and Fog 64 18 63 17.2 95 95 Calm 29.94 1014 3 4.828032 0 0
7:15 am 07:15 Cloudy with Mist and Fog 64 18 63 17.1 95 95 Calm 29.94 1014 2 3.218688 0 0
7:35 am 07:35 Cloudy with Mist and Fog 64 18 63 17.1 95 95 NE 6 9 29.94 1014 2 3.218688 0 0
7:55 am 07:55 Cloudy with Mist and Fog 65 18.1 63 17.2 95 95 E 6 9 29.94 1014 2 3.218688 0 0
8:15 am 08:15 Cloudy with Mist and Fog 65 18.2 63 17.3 95 95 Calm 29.94 1014 3 4.828032 0 0
8:35 am 08:35 Cloudy with Mist and Fog 65 18.4 63 17.3 93 93 Calm 29.94 1014 4 6.437376 0 0
8:55 am 08:55 Cloudy with Mist and Fog 65 18.5 63 17.3 93 93 Calm 29.97 1015 3 4.828032 0 0
9:15 am 09:15 Cloudy with Mist and Fog 66 18.7 63 17.4 92 92 Calm 29.97 1015 5 8.04672 0 0
9:35 am 09:35 Cloudy 66 19.1 63 17.4 90 90 Calm 29.97 1015 7 11.265408 0 0
9:55 am 09:55 Cloudy 67 19.5 64 17.6 89 89 W 5 7 29.97 1015 7 11.265408 0 0
10:15 am 10:15 Cloudy 68 19.8 63 17.2 85 85 WNW 6 9 29.97 1015 10 16.09344 0 0
10:35 am 10:35 Cloudy 68 20.1 64 17.5 85 85 NW 6 9 29.97 1015 10 16.09344 0 0
10:55 am 10:55 Cloudy 68 20.1 63 17 82 82 NNW 6 9 29.97 1015 10 16.09344 0 0
11:15 am 11:15 Cloudy 69 20.6 63 17 80 80 N 6 9 29.94 1014 10 16.09344 0 0
11:35 am 11:35 Cloudy 71 21.6 62 16.8 74 74 NNE 3 6 29.94 1014 10 16.09344 0 0
11:55 am 11:55 Cloudy 71 21.4 62 16.7 75 75 N 5 7 29.94 1014 10 16.09344 0 0
12:15 pm 12:15 Cloudy 72 22.2 62 16.7 71 71 N 5 7 29.94 1014 10 16.09344 0 0
12:35 pm 12:35 Cloudy 74 23.1 62 16.8 68 68 NE 8 13 29.94 1014 10 16.09344 0 0
12:55 pm 12:55 Cloudy 73 22.6 61 16.3 68 68 NNE 7 11 29.94 1014 10 16.09344 0 0
1:15 pm 13:15 Mostly Cloudy 74 23.3 62 16.4 65 65 ENE 6 9 29.94 1014 10 16.09344 0 0
1:35 pm 13:35 Mostly Cloudy 75 23.7 60 15.8 61 61 NNE 6 9 29.91 1013 10 16.09344 0 0
1:55 pm 13:55 Partly Cloudy 76 24.2 60 15.5 58 58 W 3 6 29.91 1013 10 16.09344 0 0
2:15 pm 14:15 Mostly Cloudy 76 24.2 60 15.3 58 58 Calm 29.91 1013 10 16.09344 0 0
2:35 pm 14:35 Cloudy 76 24.4 60 15.3 57 57 NW 5 7 29.91 1013 10 16.09344 0 0
2:55 pm 14:55 Cloudy 76 24.3 60 15.3 57 57 Calm 29.91 1013 10 16.09344 0 0
3:15 pm 15:15 Cloudy 77 24.9 60 15.6 56 56 ESE 3 6 29.91 1013 10 16.09344 0 0
3:35 pm 15:35 Partly Cloudy 77 24.8 60 15.3 56 56 Calm 29.91 1013 10 16.09344 0 0
3:55 pm 15:55 Mostly Cloudy 78 25.4 60 15.7 55 55 NNE 5 7 29.91 1013 10 16.09344 0 0
4:15 pm 16:15 Partly Cloudy 78 25.3 60 15.4 54 54 E 3 6 29.91 1013 10 16.09344 0 0
4:35 pm 16:35 Sunny 77 25.2 59 15 53 53 NNE 3 6 29.91 1013 10 16.09344 0 0
4:55 pm 16:55 Sunny 79 26.1 60 15.3 51 51 E 7 11 29.91 1013 10 16.09344 0 0
5:15 pm 17:15 Sunny 78 25.7 59 14.8 51 51 E 3 6 29.91 1013 10 16.09344 0 0
5:35 pm 17:35 Partly Cloudy 78 25.7 60 15.6 54 54 E 8 13 29.91 1013 10 16.09344 0 0
5:55 pm 17:55 Sunny 77 25 63 17.1 62 62 E 13 20 29.91 1013 10 16.09344 0 0
6:15 pm 18:15 Sunny 76 24.7 63 17 62 62 ESE 10 17 29.91 1013 10 16.09344 0 0
6:35 pm 18:35 Sunny 76 24.4 62 16.7 62 62 ESE 9 15 29.91 1013 10 16.09344 0 0
6:55 pm 18:55 Sunny 76 24.2 63 17.1 65 65 ESE 10 17 29.91 1013 10 16.09344 0 0
7:15 pm 19:15 Sunny 74 23.4 63 17 67 67 E 9 15 29.94 1014 10 16.09344 0 0
7:35 pm 19:35 Sunny 73 22.7 63 17.3 72 72 SE 9 15 29.94 1014 10 16.09344 0 0
7:55 pm 19:55 Sunny 72 22 63 17.1 74 74 E 12 19 29.94 1014 10 16.09344 0 0
8:15 pm 20:15 Mostly Cloudy 71 21.6 63 17.1 76 76 E 10 17 29.94 1014 10 16.09344 0 0
8:35 pm 20:35 Mostly Cloudy 70 20.9 62 16.9 78 78 ESE 9 15 29.94 1014 10 16.09344 0 0
8:55 pm 20:55 Mostly Cloudy 69 20.5 62 16.7 79 79 ESE 7 11 29.94 1014 10 16.09344 0 0
9:15 pm 21:15 Partly Cloudy 68 20.1 62 16.6 80 80 SSE 7 11 29.97 1015 10 16.09344 0 0
9:35 pm 21:35 Partly Cloudy 67 19.6 62 16.5 82 82 SE 8 13 29.97 1015 10 16.09344 0 0
9:55 pm 21:55 Partly Cloudy 68 19.8 61 16.3 80 80 E 6 9 29.97 1015 10 16.09344 0 0
10:15 pm 22:15 Mostly Cloudy 66 18.8 61 16.3 85 85 ENE 6 9 30 1016 10 16.09344 0 0
10:35 pm 22:35 Cloudy 66 18.7 62 16.6 88 88 ENE 7 11 30.03 1017 10 16.09344 0 0
10:55 pm 22:55 Cloudy 65 18.5 62 16.4 88 88 E 6 9 30.03 1017 10 16.09344 0 0
11:15 pm 23:15 Mostly Cloudy 65 18.5 61 16.1 86 86 E 6 9 30.03 1017 10 16.09344 0 0
11:35 pm 23:35 Partly Cloudy 64 18 61 16 88 88 E 3 6 30.03 1017 10 16.09344 0 0
11:55 pm 23:55 Clear 65 18.1 61 16.1 88 88 ESE 6 9 30.03 1017 10 16.09344 0 0

Powered by AerisWeather